Goderich, Ontario

6:49 AM EST on February 27, 2017 (GMT -0500)
Goderich

Weather History for CWGD - November, 2012

Change the Weather History Date:

Friday, November 23, 2012

  Actual Average (KP58) Record (KP58)
Temperature  
Mean Temperature 41 °F -  
Max Temperature 48 °F 41 °F 64 °F (2003)
Min Temperature 34 °F 32 °F 19 °F (2005)
Degree Days  
Heating Degree Days 24    
Moisture  
Dew Point 34 °F    
Average Humidity 72    
Maximum Humidity 100    
Minimum Humidity 60    
Precipitation  
Precipitation 0.24 in - - ()
Sea Level Pressure  
Sea Level Pressure 29.70 in    
Wind  
Wind Speed 19 mph ()    
Max Wind Speed 30 mph    
Max Gust Speed 44 mph    
Averages and records for this station are not official NWS values.
T = Trace of Precipitation, MM = Missing Value Source: Averaged Metar Reports

Daily Weather History Graph

Daily Weather History Graph

Search for Another Location

Airport or City:

Trip Planner

Search our weather history database for the weather conditions in past years. The results will help you decide how hot, cold, wet, or windy it might be!

Date:

Astronomy

Nov. 23, 2012 Rise Set
Actual Time 7:32 AM EST 4:54 PM EST
Civil Twilight 7:00 AM EST 5:26 PM EST
Nautical Twilight 6:24 AM EST 6:01 PM EST
Astronomical Twilight 5:50 AM EST 6:35 PM EST
Moon 2:15 PM EST (11/23) 2:41 AM EST (11/23)
Length of Visible Light 10h 25m
Length of Day
9h 22m
Waxing Gibbous, 79% of the Moon is Illuminated
Nov 23
Waxing Gibbous
Nov 28
Full
Dec 6
Last Quarter
Dec 13
New
Dec 20
First Quarter

Hourly Weather History & Observations

Time (EST) Temp. Windchill Dew Point Humidity Pressure Visibility Wind Dir Wind Speed Gust Speed Precip Events Conditions
12:00 AM 51.1 °F - 43.9 °F 76% 29.79 in - South 18.4 mph 25.3 mph 0.01 in   Unknown
1:00 AM 51 °F - 45 °F 72% 29.75 in - South 16.1 mph - -  
1:00 AM 50.7 °F - 44.6 °F 80% 29.75 in - South 16.1 mph 24.2 mph 0.01 in   Unknown
2:00 AM 52.7 °F - 42.8 °F 69% 29.71 in - South 18.4 mph 27.6 mph N/A   Unknown
3:00 AM 52.5 °F - 42.4 °F 69% 29.68 in - South 19.6 mph 29.9 mph N/A   Unknown
4:00 AM 52.0 °F - 42.1 °F 69% 29.64 in - South 19.6 mph 29.9 mph N/A   Unknown
5:00 AM 47.8 °F - 47.8 °F 100% 29.64 in - South 17.3 mph 24.2 mph 0.13 in   Unknown
6:00 AM 47.7 °F - - N/A% 29.61 in - South 18.4 mph 26.5 mph 0.10 in   Unknown
7:00 AM 48 °F - - % 29.61 in - South 17.3 mph - -  
7:00 AM 47.8 °F - - N/A% 29.61 in - South 17.3 mph 28.8 mph N/A   Unknown
8:00 AM 46.9 °F - 40.1 °F 77% 29.65 in - WSW 21.9 mph 31.1 mph N/A   Unknown
9:00 AM 44.8 °F 36.4 °F 36.5 °F 73% 29.66 in - West 21.9 mph 31.1 mph N/A   Unknown
10:00 AM 43.2 °F 34.0 °F 33.8 °F 70% 29.68 in - WSW 23.0 mph 32.2 mph N/A   Unknown
11:00 AM 42.3 °F 33.1 °F 33.4 °F 71% 29.68 in - West 21.9 mph 31.1 mph N/A   Unknown
12:00 PM 41.0 °F 31.6 °F 30.7 °F 67% 29.68 in - WSW 20.7 mph 28.8 mph N/A   Unknown
1:00 PM 40 °F - 31 °F 60% 29.68 in - WSW 20.7 mph - -  
1:00 PM 40.1 °F 30.5 °F 30.9 °F 70% 29.68 in - WSW 20.7 mph 29.9 mph N/A   Unknown
2:00 PM 38.8 °F 28.5 °F 30.9 °F 73% 29.67 in - West 21.9 mph 29.9 mph N/A   Unknown
3:00 PM 37.6 °F 25.6 °F 27.0 °F 66% 29.68 in - West 27.6 mph 35.7 mph N/A   Unknown
4:00 PM 35.8 °F 24.5 °F 26.2 °F 68% 29.71 in - West 21.9 mph 31.1 mph N/A   Unknown
5:00 PM 35.4 °F 23.2 °F 27.1 °F 72% 29.72 in - WSW 25.3 mph 33.4 mph N/A   Unknown
6:00 PM 35.4 °F 23.0 °F 28.0 °F 75% 29.73 in - WSW 26.5 mph 36.8 mph N/A   Unknown
7:00 PM 34 °F - 27 °F 67% 29.75 in - West 29.9 mph - -  
7:00 PM 34.0 °F 20.3 °F 27.1 °F 76% 29.75 in - West 29.9 mph 41.4 mph N/A   Unknown
8:00 PM 35.2 °F 22.0 °F 26.4 °F 70% 29.76 in - West 29.9 mph 41.4 mph N/A   Unknown
9:00 PM 34.5 °F 21.5 °F 25.9 °F 71% 29.77 in - WNW 27.6 mph 43.7 mph N/A   Unknown
10:00 PM 34.0 °F 21.0 °F 25.2 °F 70% 29.79 in - WNW 26.5 mph 39.1 mph 0.02 in   Unknown
11:00 PM 34.9 °F 22.0 °F 26.8 °F 72% 29.80 in - NW 27.6 mph 36.8 mph 0.02 in   Unknown